ORBCOMM FM 39

Satellite information

Favourite Embed

Satellite Type and Status

PAYLOADIN ORBIT

Key statistics

Satellite ORBCOMM FM 39 at a glance.

Uptime

6170

Days in orbit

Revolutions

≈ 14.8

Per day

Orbit

LEO

Low Earth Orbit

Inclination

48.4

Latest

Satellite identification and parameters

Extended collection of information and parameters for ORBCOMM FM 39.

Object identification

Identified? True

Debris? False

Object name: ORBCOMM FM 39

International designator: 2008-031D

Object number (NORAD): 33063

Object ID (CCSDS): 33063

Country: ORBITAL TELECOMMUNICATIONS SATELLITE (GLOBALSTAR) (ORB)

Current information (Y/N): Y

RCS size: LARGE

Orbital parameters

Period: 97.334 minutes

Inclination: 48.4395 deg

SMA: 7009.22 km

Apoapsis: 635.94 km

Periapsis: 626.23 km

RAAN: 172.6967 deg

Eccentricy: 0.0006927

Argument of periapsis: 200.993 deg

Mean anomaly: 159.0701 deg

Mean motion: 14.79442953 rev/day

Mean motion (dot): 0.00001385 rev/day2

B* drag term: 0.00021163 1/REarth

Two-line elements (TLE)

Creation date: May 11, 2025, 2:40 a.m.

Reference frame: TEME

Reference center: EARTH

Epoch: May 10, 2025, 7:34 p.m. UTC

TLE line 0: 0 ORBCOMM FM 39

TLE line 1: 1 33063U 08031D 25130.81579601 .00001385 00000-0 21163-3 0 9998

TLE line 2: 2 33063 48.4395 172.6967 0006927 200.9930 159.0701 14.79442953908261

Live tracking on map

Real-time ground track for satellite ORBCOMM FM 39.

In-orbit conjunctions

A list of the most updated potential collisions computed for object ORBCOMM FM 39.

Target Orbit TCA Probability of collision Miss distance Type
CZ-4B DEB SSO 2024-12-15 08:30:38 0.0001276582 675.0 (m) DEBRIS

Associated space launch

LEO communications satellites

ORBCOMM FM 39 was lifted into orbit during the mission ‘Kosmos-3M | Orbcomm FM 37 to 41 & CDS 3’, on board a Kosmos-3M space rocket.

The launch took place on June 19, 2008, 6:36 a.m. from 107.

For more information about the launch, click the button.

Launch to space Kosmos-3M | Orbcomm FM 37 to 41 & CDS 3
Kosmos-3M | Orbcomm FM 37 to 41 & CDS 3

Agency: N/A

Status: Launch Successful

Launch date: June 19, 2008, 6:36 a.m. UTC

Rocket: Kosmos-3M

Launch pad: 107

Location: Kapustin Yar, Russian Federation

...

Latest news about this satellite

There are no fresh news available about this satellite. Check back as we update our databases every day.


Newsletter sign-up

Weekly statistics, charts and insights to help you stay on top of the space industry.